Regional Weather Roundup
Issued by NWS

Home | Current Version | Previous Version | Graphics & Text | Print | Product List | Glossary On
Versions: 1 2 3 4 5 6 7 8 9 10 11 12 13 14 15 16 17 18 19 20 21 22 23 24 25 26 27 28 29 30 31 32 33 34 35 36 37 38 39 40 41 42 43 44 45 46 47 48 49 50
000
ASUS43 KFSD 201210
RWRSD

WEATHER ROUNDUP FOR SOUTH DAKOTA
NATIONAL WEATHER SERVICE SIOUX FALLS SD
700 AM CDT THU JUL 20 2017

NOTE: "FAIR" INDICATES FEW OR NO CLOUDS BELOW 12,000 FEET WITH NO
SIGNIFICANT WEATHER AND/OR OBSTRUCTIONS TO VISIBILITY.


SDZ001>005-009-010-012>017-201300-
NORTHWEST AND NORTH CENTRAL SOUTH DAKOTA

CITY           SKY/WX    TMP DP  RH WIND       PRES   REMARKS
BUFFALO          N/A     68  63  84 SE8       30.00R
FAITH            N/A     66  66 100 SE9       30.04R
MOBRIDGE       FOG       68  67  96 VRB5      29.99R VSB<1/4
$$

SDZ012>016-024>037-041>051-057-063-072>074-201300-
SOUTHWEST AND SOUTH CENTRAL SOUTH DAKOTA

CITY           SKY/WX    TMP DP  RH WIND       PRES   REMARKS
RAPID CTY ARPT PTCLDY    66  62  87 NW6       30.07F
PIERRE         CLOUDY    71  68  90 E3        30.01R
CUSTER         CLOUDY    62  56  80 N3        30.23S
ELLSWORTH AFB  PTCLDY    68  67  97 CALM      30.07F
PHILIP         CLOUDY    70  69  97 E5        30.02S
PINE RIDGE     PTCLDY    66  66 100 E5        30.09R
SPEARFISH      FAIR      70  59  68 CALM      30.10R
WINNER         FAIR      74  69  85 E6        30.01S
$$

SDZ004>011-016>023-039-040-201300-
NORTHEAST SOUTH DAKOTA

CITY           SKY/WX    TMP DP  RH WIND       PRES   REMARKS
ABERDEEN       FOG       63  63 100 CALM      30.02R VSB<1/4
WATERTOWN      FOG       62  62 100 CALM      30.02R VSB<1/4
BROOKINGS      CLOUDY    69  67  93 NE6       30.01F
SISSETON         N/A     62  61  96 CALM      30.00R
$$

SDZ017-020-022-023-036>040-048>070-201300-
SOUTHEAST SOUTH DAKOTA

CITY           SKY/WX    TMP DP  RH WIND       PRES   REMARKS
SIOUX FALLS    CLOUDY    71  69  93 N3        30.00R
HURON          CLOUDY    70  69  97 CALM      30.00R FOG
CHAMBERLAIN    CLOUDY    73  72  97 E5        30.02S
MITCHELL       CLOUDY    72  71  97 CALM      30.00S
YANKTON        CLOUDY    72  70  93 N3        29.99R
$$

ABBREVIATIONS USED IN REMARKS
   TC - TEMPERATURE IN CELSIUS
  WCI - WIND CHILL INDEX
   HX - HEAT INDEX
  VSB - VISIBILITY





USA.gov is the U.S. government's official web portal to all federal, state and local government web resources and services.